Location: Montamat
(43.4852°N, 0.8444°E)
Time: 04:27:09
(UTC+00:00)

Meteor 2-9 Rocket - Pass Details

Date: 14 May 2026
Orbit: 790 x 893 km, 81.3° (Epoch: 6 June)

Event Time Altitude Azimuth Distance (km) Brightness Sun altitude
Rises 22:47:55 0° 353° (N) 3,321 8.6 -25.9°
Reaches altitude 10° 22:50:20 10° 358° (N) 2,397 7.5 -26.1°
Maximum altitude 22:55:39 56° 77° (ENE) 975 4.4 -26.3°
Enters shadow 22:55:56 55° 90° (E) 983 4.4 -26.3°
